Hagerstown, MD

1:24 AM EDT on August 20, 2017 (GMT -0400)
Hagerstown Regional-Henson

Weather History for KHGR - April, 2013

Change the Weather History Date:

Thursday, April 25, 2013

  Actual Average Record
Temperature  
Mean Temperature 51 °F 56 °F  
Max Temperature 61 °F 66 °F 84 °F (2011)
Min Temperature 41 °F 46 °F 35 °F (1999)
Degree Days  
Heating Degree Days 14 10  
Month to date heating degree days 293 337  
Since 1 July heating degree days 4736 4969  
Cooling Degree Days 0 1  
Month to date cooling degree days 26 7  
Year to date cooling degree days 26 8  
Growing Degree Days 2 (Base 50)    
Moisture  
Dew Point 30 °F    
Average Humidity 49    
Maximum Humidity 70    
Minimum Humidity 27    
Precipitation  
Precipitation 0.00 in 0.11 in 0.61 in (2004)
Month to date precipitation 1.77 3.02  
Year to date precipitation 7.58 11.63  
Sea Level Pressure  
Sea Level Pressure 30.25 in    
Wind  
Wind Speed 10 mph (WNW)    
Max Wind Speed 24 mph    
Max Gust Speed 29 mph    
Visibility 10 miles    
Events      
T = Trace of Precipitation, MM = Missing Value Source: NWS Daily Summary

Daily Weather History Graph

Daily Weather History Graph

Search for Another Location

Airport or City:

Trip Planner

Search our weather history database for the weather conditions in past years. The results will help you decide how hot, cold, wet, or windy it might be!

Date:

Astronomy

Apr. 25, 2013 Rise Set
Actual Time 6:18 AM EDT 7:59 PM EDT
Civil Twilight 5:50 AM EDT 8:28 PM EDT
Nautical Twilight 5:15 AM EDT 9:02 PM EDT
Astronomical Twilight 4:38 AM EDT 9:39 PM EDT
Moon 8:10 PM EDT (4/25) 6:00 AM EDT (4/25)
Length of Visible Light 14h 37m
Length of Day
13h 40m
Full, 100% of the Moon is Illuminated
Apr 25
Full
Apr 25
Full
May 2
Last Quarter
May 9
New
May 18
First Quarter

Hourly Weather History & Observations

Time (EDT) Temp. Windchill Dew Point Humidity Pressure Visibility Wind Dir Wind Speed Gust Speed Precip Events Conditions
12:53 AM 48.0 °F - 37.0 °F 66% 30.13 in 10.0 mi NW 18.4 mph 23.0 mph N/A   Mostly Cloudy
1:53 AM 45.0 °F 37.1 °F 35.1 °F 68% 30.12 in 10.0 mi NW 19.6 mph 28.8 mph N/A   Mostly Cloudy
2:53 AM 44.1 °F 37.4 °F 33.1 °F 65% 30.14 in 10.0 mi WNW 13.8 mph 21.9 mph N/A   Scattered Clouds
3:53 AM 43.0 °F 35.4 °F 32.0 °F 65% 30.16 in 10.0 mi NW 16.1 mph - N/A   Partly Cloudy
4:53 AM 43.0 °F 36.8 °F 34.0 °F 71% 30.20 in 10.0 mi NW 11.5 mph - N/A   Mostly Cloudy
5:53 AM 42.1 °F 36.1 °F 30.9 °F 65% 30.24 in 10.0 mi NW 10.4 mph - N/A   Scattered Clouds
6:53 AM 42.1 °F 36.1 °F 30.0 °F 62% 30.26 in 10.0 mi NNW 10.4 mph - N/A   Clear
7:53 AM 43.0 °F 39.5 °F 30.9 °F 62% 30.29 in 10.0 mi WNW 5.8 mph - N/A   Scattered Clouds
8:53 AM 45.0 °F 38.2 °F 28.0 °F 52% 30.30 in 10.0 mi WNW 15.0 mph - N/A   Clear
9:53 AM 46.0 °F 43.9 °F 30.0 °F 54% 30.31 in 10.0 mi West 4.6 mph - N/A   Clear
10:53 AM 48.9 °F - 32.0 °F 52% 30.32 in 10.0 mi Variable 4.6 mph - N/A   Clear
11:53 AM 51.1 °F - 32.0 °F 48% 30.30 in 10.0 mi North 5.8 mph - N/A   Clear
12:53 PM 53.1 °F - 32.0 °F 45% 30.29 in 10.0 mi WNW 8.1 mph - N/A   Clear
1:53 PM 55.0 °F - 30.9 °F 40% 30.28 in 10.0 mi WNW 5.8 mph - N/A   Clear
2:53 PM 57.9 °F - 30.9 °F 36% 30.26 in 10.0 mi NW 3.5 mph - N/A   Clear
3:53 PM 59.0 °F - 28.0 °F 31% 30.24 in 10.0 mi Variable 5.8 mph - N/A   Clear
4:53 PM 60.1 °F - 26.1 °F 27% 30.22 in 10.0 mi Variable 5.8 mph - N/A   Clear
5:53 PM 60.1 °F - 24.1 °F 25% 30.22 in 10.0 mi WSW 3.5 mph - N/A   Clear
6:53 PM 61.0 °F - 28.0 °F 29% 30.22 in 10.0 mi South 6.9 mph - N/A   Clear
7:53 PM 57.0 °F - 30.0 °F 36% 30.23 in 10.0 mi SSE 5.8 mph - N/A   Clear
8:53 PM 57.0 °F - 28.9 °F 34% 30.26 in 10.0 mi South 4.6 mph - N/A   Clear
9:53 PM 54.0 °F - 28.0 °F 37% 30.32 in 10.0 mi Calm Calm - N/A   Clear
10:53 PM 55.0 °F - 26.1 °F 33% 30.33 in 10.0 mi Calm Calm - N/A   Clear
11:53 PM 54.0 °F - 26.1 °F 34% 30.33 in 10.0 mi Calm Calm - N/A   Clear